星链-5002 (STARLINK-5002 )

导读

STARLINK-5002是美国SpaceX公司星链(Starlink)星座的一员,于2022年9月24日发射入轨。星链项目旨在构建全球低轨卫星互联网,为基础设施匮乏地区提供宽带服务。该卫星运行在近地轨道,采用霍尔推进器等技术,支持自主避撞,退役后可主动离轨再入大气层烧毁,为全球覆盖、低延迟高速互联网服务提供支撑,服务已延伸至应急、农业、航空等多个领域。

Basic Information
目录编号:
53922
目录名称:
STARLINK-5002
国际标识:
2022-119AN
轨道中心:
EARTH
卫星名称:
星链-5002
卫星全名:
星链-5002 (STARLINK-5002 )
卫星状态:
在轨 (已飞行1449 天)
发射日期:
2022-09-24 UTC
国别 :
美国 (US)
星等 :
--
This satellite is enrolled in the Space Conjunction Data Service (SCDS) and the current flight risk assessment level is: No High Risk
Orbit Information
数据来源 国际轨道数据 AOE轨道数据
星历时间 2026-09-12T10:58:23+0800
8小时前
查看轨道信息
2026-09-06T10:00:00+0800
6天前
查看轨道信息
半长轴 6917.9km 6917.859km
偏心率 0.0001622 0.0001303
轨道倾角 53.160° 53.158°
近地点辐角 80.936° 58.994°
升交点赤经 196.319° 223.474°
平近点角 279.181° 232.136°
近地点 538.64km 538.82km
远地点 540.886km 540.624km
周期 95.438分钟 95.437分钟
每日圈数 15.088336 15.088473
Detailed Information
固有亮度:
5
最大亮度:
2.5
卫星平台:
Starlink v1.5
覆盖范围:
全球
运营商:
太空探索技术公司
运营商所在国:
美国
制造商(研发单位):
太空探索技术公司
制造商所在国:
美国
使用方式:
暂无
Satellite Introduction
星链(Starlink)计划是由太空探索技术公司(SpaceX)提出的一个巨型低轨卫星互联网星座项目,计划在2019年至2024年间在太空搭建由约1.2万颗卫星组成的“星链”网络,其中1584颗将部署在地球上空550千米处的近地轨道,并从2020年开始工作。该卫星仍在工作。
2D Orbit Map
3D Orbit Map
Orbit Altitude Analysis Chart
Orbit Inclination Analysis Chart
Orbit Comprehensive Analysis Chart
View Comprehensive Chart
Conjunction Data List
Event ID Objects TCA Miss Dist (km) Collision Risk Probability Collision Risk Index (CRI) Action
CDM_260906-010705-392206-909723
OBJECT A (69097)
2026-09-06T
01:07:40+0000
1.833 km
极远距离
3.201166E-6 低风险 0.45
CDM_260913-033305-392205-461121
2026-09-13T
03:33:42+0000
2.391 km
极远距离
1.90094E-6 低风险 0.41
CDM_260912-153905-349705-392221
2026-09-12T
15:39:17+0000
2.662 km
极远距离
1.571779E-6 低风险 0.39
CDM_260910-171505-392206-506821
2026-09-10T
17:15:16+0000
2.922 km
极远距离
1.292675E-6 低风险 0.37
Miss Distance Evolution Trend with All Objects
Collision Probability Evolution Trend with All Objects